TimeEDT,TemperatureF,Dew PointF,Humidity,Sea Level PressureIn,VisibilityMPH,Wind Direction,Wind SpeedMPH,Gust SpeedMPH,PrecipitationIn,Events,Conditions,WindDirDegrees,DateUTC
12:53 AM,55.9,51.1,84,30.14,10.0,North,6.9,-,N/A,,Clear,350,2013-09-05 04:53:00
1:53 AM,54.0,48.9,83,30.14,10.0,NNW,5.8,-,N/A,,Clear,330,2013-09-05 05:53:00
2:53 AM,54.0,48.9,83,30.16,10.0,NNW,4.6,-,N/A,,Clear,330,2013-09-05 06:53:00
3:53 AM,51.1,46.9,86,30.18,10.0,NNW,8.1,-,N/A,,Clear,340,2013-09-05 07:53:00
4:53 AM,50.0,45.0,83,30.20,10.0,North,9.2,-,N/A,,Clear,350,2013-09-05 08:53:00
5:53 AM,48.0,43.0,83,30.22,10.0,NNW,4.6,-,N/A,,Clear,330,2013-09-05 09:53:00
6:53 AM,48.0,43.0,83,30.24,10.0,NW,4.6,-,N/A,,Clear,320,2013-09-05 10:53:00
7:53 AM,50.0,45.0,83,30.27,10.0,NNW,5.8,-,N/A,,Clear,340,2013-09-05 11:53:00
8:53 AM,53.1,46.9,80,30.28,10.0,North,6.9,-,N/A,,Clear,360,2013-09-05 12:53:00
9:53 AM,57.0,48.0,72,30.29,10.0,NNE,5.8,-,N/A,,Clear,20,2013-09-05 13:53:00
10:53 AM,62.1,48.9,62,30.29,10.0,NNE,9.2,-,N/A,,Clear,20,2013-09-05 14:53:00
11:53 AM,64.0,45.0,50,30.30,10.0,NNE,10.4,-,N/A,,Partly Cloudy,30,2013-09-05 15:53:00
12:53 PM,64.0,46.0,52,30.29,10.0,East,5.8,-,N/A,,Clear,80,2013-09-05 16:53:00
1:53 PM,64.9,46.0,50,30.29,10.0,Calm,Calm,-,N/A,,Partly Cloudy,0,2013-09-05 17:53:00
2:53 PM,66.0,46.0,48,30.28,10.0,ENE,3.5,-,N/A,,Partly Cloudy,70,2013-09-05 18:53:00
3:53 PM,68.0,46.0,45,30.27,10.0,Calm,Calm,-,N/A,,Clear,0,2013-09-05 19:53:00
4:53 PM,66.9,46.9,49,30.26,10.0,ENE,6.9,-,N/A,,Clear,60,2013-09-05 20:53:00
5:53 PM,66.9,46.9,49,30.26,10.0,Variable,4.6,-,N/A,,Clear,0,2013-09-05 21:53:00
6:53 PM,64.9,46.9,52,30.27,10.0,ESE,6.9,-,N/A,,Clear,110,2013-09-05 22:53:00
7:53 PM,61.0,48.9,64,30.27,10.0,East,3.5,-,N/A,,Clear,90,2013-09-05 23:53:00
8:53 PM,57.9,48.0,70,30.27,10.0,East,4.6,-,N/A,,Clear,90,2013-09-06 00:53:00
9:53 PM,55.9,46.9,72,30.28,10.0,Calm,Calm,-,N/A,,Clear,0,2013-09-06 01:53:00
10:53 PM,55.0,46.9,74,30.28,10.0,East,3.5,-,N/A,,Clear,100,2013-09-06 02:53:00
11:53 PM,53.1,46.9,80,30.28,10.0,Calm,Calm,-,N/A,,Clear,0,2013-09-06 03:53:00